Wind_Speed
27 25 26 25 28 28 28 26 25 25 25 25 24 24 24 25 27 29 29 29 30 30 31 32 34 36 36 35 35 36 38 39 40 42 44 43 43 44 47 50 52 52 53 54 59 59 62
32 33 33 33 33 31 32 31 31 28 28 29 29 32 33 31 30 31 32 34 34 36 38 40 39 41 42 41 40 44 43 44 43 44 46 48 49 49 50 52 52 53 54 55 59 59 61
39 37 37 37 37 36 36 36 31 31 33 32 34 34 32 33 35 34 34 35 37 38 41 40 42 46 46 45 45 47 47 48 48 47 49 51 52 53 52 53 55 55 56 58 57 59 60
36 37 38 38 40 39 39 37 38 39 40 38 37 37 35 35 37 36 36 39 42 44 44 44 48 49 49 48 50 50 51 53 52 51 53 52 53 53 51 52 54 55 56 58 58 58 59
37 38 41 43 43 44 43 44 43 43 43 42 40 40 41 42 42 45 48 46 47 46 45 47 49 48 50 53 54 54 55 57 56 55 55 54 54 51 52 52 52 56 56 56 58 60 60
41 39 42 46 48 49 48 48 48 47 46 47 46 49 51 48 48 46 48 49 48 51 51 52 50 54 54 52 55 57 58 56 56 56 56 52 52 51 53 53 51 53 53 59 57 60 60
45 44 44 47 49 52 53 53 51 51 50 53 53 50 50 48 48 51 51 54 56 55 56 58 59 57 58 60 57 58 57 56 57 57 54 50 51 51 52 53 52 54 56 59 58 58 61
44 45 46 46 48 51 52 52 54 54 53 54 52 52 52 52 55 58 57 54 54 56 58 60 61 63 62 58 59 58 55 56 56 54 52 53 52 52 53 54 56 55 58 59 59 56 57
38 40 41 44 46 48 49 51 52 53 55 55 56 55 56 56 56 57 58 58 57 56 58 62 62 61 60 60 60 58 55 56 57 56 55 56 55 55 54 55 56 56 57 56 52 53 54
35 39 42 45 45 46 48 48 48 49 51 52 55 56 57 59 56 58 61 60 61 58 57 60 62 62 60 59 60 60 59 59 60 60 59 58 55 52 52 53 54 53 56 52 51 49 45
26 30 35 39 42 42 41 44 44 46 48 48 46 49 47 47 48 51 53 53 54 57 57 56 59 59 58 59 60 61 61 61 62 61 59 55 51 50 50 51 51 51 49 48 48 43 36
31 33 38 39 40 39 43 41 42 39 42 45 45 44 45 42 43 45 44 43 44 47 51 53 56 57 55 54 55 57 57 56 54 54 53 52 49 46 45 46 47 45 43 44 42 37 28
35 34 37 39 39 41 45 46 47 49 47 49 45 44 45 42 41 42 44 44 44 50 53 51 53 52 54 57 57 56 55 55 55 53 54 53 51 46 46 45 42 39 38 36 39 39 28
46 47 43 44 47 48 45 48 50 54 58 58 52 47 50 56 53 50 47 51 53 59 65 65 61 56 55 58 58 58 57 57 57 56 54 55 52 52 51 44 41 36 35 32 34 36 34
44 51 49 52 51 55 52 60 59 59 61 64 63 62 62 59 65 60 58 58 65 65 66 69 71 60 57 59 61 60 59 60 60 60 57 51 51 53 48 43 41 36 33 33 33 36 37
51 54 58 60 58 61 60 63 58 62 64 65 67 69 66 66 70 67 64 65 67 72 73 77 76 72 63 63 60 60 60 60 62 62 62 57 50 52 52 46 42 36 34 34 33 32 31
55 60 58 64 65 66 64 70 62 63 65 67 67 69 71 73 74 74 73 74 75 77 82 83 80 76 74 74 70 66 62 63 61 61 61 59 56 52 52 50 45 40 39 38 33 32 32
59 59 70 69 64 69 75 67 65 65 71 74 76 76 78 81 82 80 79 84 84 88 86 86 77 73 77 77 79 76 69 68 63 61 61 61 57 54 52 49 48 46 44 41 38 34 34
68 71 72 74 71 74 71 66 69 74 78 81 83 88 90 94 92 92 97 97 98 96 93 87 79 75 75 80 80 80 71 67 66 63 60 60 60 59 56 54 55 52 49 45 43 41 39
71 77 76 77 79 79 78 81 80 85 88 93 96 98 99 101 99 99 98 96 93 93 92 86 81 77 76 76 78 77 74 69 66 63 63 61 61 61 60 63 61 57 54 53 49 46 45
77 80 83 86 86 83 88 91 96 98 102 102 105 104 104 97 91 94 89 91 87 83 82 81 79 80 79 79 80 79 76 72 67 65 65 63 60 62 61 64 66 61 59 58 56 53 50
82 87 87 88 91 96 100 101 105 109 108 109 111 107 101 91 88 89 83 79 81 81 83 82 81 80 80 83 82 80 77 75 69 67 67 64 58 62 60 63 65 58 59 62 59 57 55
90 89 91 94 99 104 106 109 111 111 113 110 108 101 91 85 85 81 78 80 79 79 82 83 83 82 82 81 81 81 78 72 68 66 67 61 60 62 55 63 60 50 63 66 62 61 60
90 93 96 101 104 108 109 110 113 116 115 110 105 100 89 82 79 77 75 75 75 76 77 80 78 79 81 81 78 76 75 71 68 67 66 62 63 62 55 61 52 55 60 67 61 63 66
95 96 102 105 107 107 111 115 115 118 116 110 101 89 82 80 77 74 71 70 71 73 72 73 75 75 74 73 75 72 69 64 63 61 64 63 62 61 53 58 55 57 62 64 65 68 72
100 103 103 101 106 114 116 121 120 122 115 107 96 85 79 75 75 74 72 72 71 70 70 71 70 70 71 70 69 63 61 60 59 59 62 65 64 63 59 56 54 58 60 62 63 64 74
102 103 109 107 114 117 120 122 122 116 112 100 92 84 77 73 73 74 74 75 74 74 73 72 71 73 70 68 66 63 58 58 57 62 63 64 65 62 63 57 55 57 58 58 60 64 64
103 106 109 113 118 123 124 122 116 111 106 97 89 85 81 78 76 76 75 78 78 79 78 73 72 73 71 69 65 59 56 56 57 61 63 64 66 67 66 61 55 59 60 61 62 63 62
105 111 115 123 127 126 122 118 113 106 98 93 90 87 84 81 76 78 79 80 80 81 80 77 74 78 73 69 65 61 56 54 56 55 63 68 73 70 68 57 58 61 64 66 66 67 64
Wind_Direction
265 268 271 272 276 278 279 285 287 284 287 280 285 293 291 294 295 291 292 288 290 288 291 291 294 300 299 298 305 309 308 305 302 302 301 305 306 305 304 304 302 299 299 297 297 299 300
262 267 270 270 275 274 281 282 286 285 281 285 282 291 291 292 293 292 290 288 287 289 288 292 291 294 293 295 297 306 303 304 303 300 300 302 305 305 305 304 303 302 300 299 298 300 301
266 268 272 275 278 279 281 283 282 279 281 280 282 284 284 287 289 290 289 290 289 289 293 295 296 292 292 293 294 299 298 299 301 301 301 301 301 304 305 305 305 305 303 302 300 301 304
272 274 272 275 278 280 279 278 278 282 280 279 280 281 282 286 286 285 286 292 290 294 288 289 291 290 292 291 291 294 295 297 297 300 302 301 301 305 304 306 304 305 306 306 307 308 309
273 274 278 278 277 275 276 278 282 281 283 281 278 279 280 285 286 285 292 289 291 289 283 288 289 288 290 289 289 290 293 294 295 294 300 300 300 302 303 305 305 306 308 312 313 312 312
266 269 271 273 275 277 278 278 281 281 280 280 279 281 283 285 284 282 280 287 288 288 281 287 287 284 288 289 289 287 289 291 292 294 297 299 301 300 301 304 305 306 308 311 309 310 310
269 268 269 267 268 272 276 277 276 277 276 277 279 279 280 278 277 278 281 285 283 284 285 283 286 288 287 288 287 287 289 290 290 291 295 298 302 301 302 303 304 307 309 310 309 309 309
272 273 273 271 272 274 276 278 279 282 283 283 282 283 281 278 279 282 283 281 278 280 284 281 282 285 286 287 289 287 289 289 290 293 294 297 300 301 303 302 303 306 310 310 309 309 309
274 273 274 276 277 278 278 280 281 282 283 284 285 285 284 281 280 282 283 281 280 278 278 281 282 283 283 284 285 288 288 290 291 293 295 297 298 298 300 301 303 308 308 307 306 308 311
287 279 280 279 280 282 282 284 286 286 286 286 286 286 286 282 279 280 279 278 278 278 279 282 283 283 284 286 287 288 289 290 291 291 292 294 295 296 297 300 303 307 307 307 307 312 314
304 298 296 292 293 290 294 298 294 295 295 295 291 290 285 284 282 282 282 283 284 284 283 282 281 282 284 284 285 286 286 287 287 289 289 291 292 292 297 298 301 303 305 306 306 310 316
309 301 302 309 303 302 310 314 312 300 297 295 294 289 289 289 289 289 289 291 295 294 287 284 281 282 283 284 284 285 286 287 288 289 290 291 296 297 298 300 302 303 303 306 307 310 315
322 319 319 312 309 306 308 306 313 315 309 302 297 289 289 287 293 293 291 292 301 306 302 303 290 287 286 285 284 283 285 288 288 289 293 294 297 297 301 302 301 304 302 303 307 313 320
320 322 322 319 323 317 308 312 313 315 309 307 304 301 302 297 293 295 299 301 309 306 307 312 308 294 291 287 287 288 289 289 288 289 289 292 294 294 296 297 297 298 300 302 304 308 304
309 314 312 316 317 319 312 316 308 305 309 305 305 303 300 302 304 302 298 304 301 301 303 305 306 296 289 290 287 286 288 289 289 290 291 289 287 290 292 292 292 290 301 303 303 308 306
308 308 312 312 311 312 312 310 308 304 307 304 305 302 299 298 300 299 299 296 297 298 298 301 300 296 289 289 287 287 285 285 286 288 288 287 287 286 285 285 285 286 294 297 301 302 304
303 304 302 306 305 307 311 314 307 300 298 302 304 300 300 298 295 295 290 290 292 291 294 297 294 290 288 289 289 287 286 284 285 287 287 284 284 283 281 282 282 282 287 292 293 301 299
299 294 301 303 302 305 308 308 300 303 297 296 296 295 295 298 293 287 287 288 288 289 291 291 287 283 282 285 284 285 285 283 284 284 283 282 278 276 272 274 274 277 279 282 286 289 295
294 296 297 297 297 301 304 303 301 299 296 293 292 294 293 294 289 287 285 283 283 285 287 286 285 277 275 275 278 282 284 283 285 283 279 277 276 273 264 262 265 268 272 276 277 280 283
291 296 292 294 295 299 300 300 298 299 298 299 298 297 296 296 289 287 287 285 283 280 281 280 280 276 274 272 272 278 283 284 283 280 279 276 273 268 264 261 261 263 267 270 271 272 277
287 290 292 292 293 295 298 298 300 300 302 301 300 297 295 295 291 289 285 281 280 280 277 275 274 273 272 272 273 277 278 279 279 278 277 274 269 267 262 260 259 258 263 266 267 270 274
287 290 291 292 294 296 297 296 299 300 300 299 298 300 300 298 293 289 284 278 277 276 275 275 273 270 270 271 273 275 276 278 278 275 275 272 268 264 263 262 259 261 262 260 263 265 269
287 290 289 290 295 297 298 301 302 303 303 302 302 301 299 296 293 288 285 281 278 276 274 274 274 273 273 273 273 274 276 276 276 275 273 271 266 263 261 260 260 260 254 259 261 264 266
287 290 293 296 296 298 301 301 301 302 303 305 306 304 302 297 293 290 288 285 282 280 279 275 273 273 274 276 275 274 274 274 274 273 271 268 263 259 257 259 259 254 254 256 258 260 260
291 295 296 297 299 302 302 303 302 305 305 307 306 303 301 297 294 292 289 287 284 283 281 278 278 278 275 274 273 274 275 273 270 269 268 266 263 260 257 256 255 256 253 255 255 256 257
294 295 299 301 302 301 302 303 303 305 306 307 304 302 298 295 294 293 290 288 286 283 281 281 279 277 275 274 275 274 272 273 271 266 264 264 263 261 258 254 254 255 255 253 253 252 255
297 298 297 301 302 303 302 303 303 304 305 305 303 301 296 293 292 291 290 289 287 285 282 282 282 280 278 276 276 273 273 271 269 268 267 265 263 262 261 258 252 251 252 250 254 253 254
297 298 301 300 302 304 303 302 303 304 304 303 300 297 296 294 293 290 288 286 286 284 283 282 281 280 277 274 273 271 270 271 270 268 267 267 265 261 260 261 259 255 252 252 251 251 251
297 299 299 302 302 302 302 303 304 303 301 299 298 297 296 294 291 289 287 283 282 281 280 280 278 276 274 273 272 272 268 265 266 266 265 263 262 262 261 262 259 257 256 253 251 251 251
Height
10762 10762 10762 10762 10762 10762 10761 10761 10760 10758 10757 10756 10754 10753 10752 10750 10749 10747 10745 10744 10742 10741 10739 10736 10734 10731 10728 10726 10724 10720 10716 10712 10708 10704 10700 10695 10690 10685 10679 10672 10666 10662 10657 10650 10640 10635 10626
10757 10756 10756 10756 10756 10756 10756 10755 10754 10753 10751 10750 10748 10747 10746 10744 10742 10740 10738 10737 10735 10733 10730 10728 10726 10724 10721 10719 10715 10711 10707 10703 10699 10696 10691 10686 10681 10675 10669 10662 10656 10648 10644 10638 10628 10623 10614
10751 10750 10750 10750 10750 10750 10749 10748 10747 10745 10744 10743 10741 10739 10738 10736 10735 10733 10731 10729 10727 10724 10721 10719 10716 10714 10711 10709 10706 10703 10698 10694 10691 10687 10682 10676 10670 10665 10659 10650 10642 10636 10629 10624 10617 10611 10601
10744 10744 10744 10744 10743 10743 10741 10740 10739 10737 10735 10734 10732 10731 10730 10728 10727 10725 10723 10721 10718 10715 10712 10709 10706 10704 10701 10699 10696 10692 10688 10684 10681 10677 10672 10666 10660 10655 10649 10641 10631 10625 10618 10609 10603 10596 10589
10737 10737 10737 10736 10735 10733 10732 10731 10730 10728 10726 10725 10724 10722 10720 10719 10717 10716 10713 10710 10707 10704 10701 10698 10695 10692 10690 10687 10684 10681 10677 10673 10669 10666 10661 10656 10650 10646 10639 10632 10624 10614 10607 10599 10590 10581 10578
10730 10729 10728 10728 10726 10725 10723 10721 10720 10718 10717 10715 10713 10711 10710 10707 10705 10704 10701 10699 10696 10692 10689 10686 10683 10680 10678 10675 10671 10668 10665 10662 10657 10654 10650 10645 10640 10636 10629 10622 10616 10607 10599 10588 10584 10574 10567
10720 10719 10719 10717 10715 10714 10712 10710 10708 10706 10704 10702 10700 10698 10697 10695 10693 10691 10689 10687 10684 10681 10677 10674 10671 10668 10664 10662 10658 10655 10652 10648 10645 10642 10638 10634 10629 10625 10619 10611 10605 10597 10589 10580 10574 10566 10557
10710 10710 10709 10707 10706 10704 10702 10700 10698 10696 10693 10691 10688 10687 10685 10683 10680 10678 10675 10672 10670 10667 10661 10659 10656 10653 10651 10648 10644 10642 10638 10635 10633 10630 10626 10622 10618 10613 10608 10601 10594 10589 10579 10571 10561 10556 10547
10702 10701 10699 10698 10696 10694 10692 10689 10687 10685 10682 10679 10676 10674 10671 10668 10666 10663 10660 10658 10656 10654 10650 10642 10640 10638 10637 10634 10630 10627 10625 10621 10619 10616 10613 10610 10607 10602 10597 10590 10583 10577 10568 10560 10555 10547 10539
10693 10691 10690 10688 10686 10683 10680 10678 10676 10672 10669 10666 10663 10661 10658 10655 10651 10648 10645 10641 10638 10637 10637 10631 10627 10623 10622 10620 10616 10613 10611 10608 10604 10602 10600 10597 10593 10590 10585 10580 10573 10566 10556 10549 10543 10540 10534
10685 10684 10682 10680 10677 10674 10672 10669 10666 10663 10659 10656 10653 10649 10646 10642 10639 10635 10632 10628 10625 10622 10622 10615 10612 10609 10607 10604 10602 10598 10595 10594 10591 10588 10586 10583 10580 10578 10573 10568 10563 10557 10549 10541 10535 10533 10528
10680 10677 10674 10671 10668 10666 10662 10659 10655 10652 10648 10645 10642 10637 10633 10630 10627 10623 10619 10616 10613 10609 10604 10603 10599 10597 10594 10590 10587 10584 10580 10578 10576 10574 10571 10569 10567 10564 10561 10556 10552 10547 10541 10533 10526 10526 10523
10671 10669 10667 10663 10661 10657 10654 10650 10646 10643 10639 10635 10632 10628 10623 10618 10615 10611 10608 10605 10602 10593 10588 10591 10587 10584 10580 10575 10572 10569 10567 10564 10562 10562 10559 10556 10554 10552 10549 10545 10541 10538 10533 10527 10519 10513 10515
10661 10659 10656 10654 10650 10647 10643 10639 10634 10631 10627 10621 10619 10616 10613 10609 10603 10598 10595 10592 10588 10581 10574 10573 10572 10569 10565 10559 10557 10554 10553 10549 10546 10546 10547 10545 10542 10538 10537 10535 10532 10529 10525 10520 10516 10509 10506
10651 10649 10646 10642 10638 10635 10631 10626 10622 10619 10615 10608 10605 10602 10597 10593 10589 10584 10580 10578 10572 10565 10562 10559 10556 10555 10550 10545 10542 10540 10538 10535 10531 10529 10529 10531 10530 10527 10524 10523 10521 10519 10517 10513 10509 10501 10495
10639 10636 10633 10630 10627 10623 10619 10615 10609 10606 10600 10595 10589 10586 10581 10576 10571 10567 10564 10561 10555 10548 10545 10544 10540 10538 10535 10529 10527 10523 10523 10521 10516 10514 10513 10514 10516 10514 10511 10511 10510 10509 10507 10506 10501 10498 10493
10626 10624 10620 10617 10614 10610 10603 10599 10594 10590 10585 10580 10575 10569 10563 10558 10553 10549 10545 10542 10537 10531 10527 10525 10522 10519 10516 10512 10510 10508 10508 10504 10503 10499 10496 10496 10498 10500 10497 10496 10496 10496 10496 10495 10494 10490 10486
10614 10610 10606 10601 10597 10592 10587 10583 10578 10573 10568 10564 10559 10554 10546 10540 10536 10527 10522 10518 10516 10510 10506 10504 10500 10498 10496 10492 10491 10489 10488 10484 10485 10482 10481 10478 10482 10485 10483 10482 10481 10483 10484 10484 10483 10483 10478
10601 10596 10591 10587 10583 10577 10572 10567 10562 10557 10551 10544 10539 10534 10527 10520 10514 10506 10499 10493 10488 10487 10482 10480 10476 10474 10474 10471 10468 10468 10468 10466 10464 10462 10462 10462 10465 10466 10467 10466 10465 10468 10469 10470 10470 10470 10469
10583 10580 10574 10571 10566 10560 10554 10549 10543 10538 10530 10523 10517 10508 10499 10492 10484 10477 10470 10464 10457 10458 10454 10452 10450 10448 10448 10447 10445 10450 10447 10445 10443 10442 10440 10441 10445 10445 10447 10445 10449 10453 10454 10454 10454 10456 10457
10569 10565 10560 10553 10546 10542 10534 10525 10518 10513 10505 10497 10489 10481 10468 10462 10454 10445 10440 10436 10431 10425 10427 10425 10424 10422 10423 10423 10423 10423 10424 10422 10423 10422 10419 10418 10424 10423 10425 10425 10428 10435 10440 10440 10439 10440 10445
10551 10547 10541 10535 10527 10520 10512 10501 10492 10486 10477 10468 10458 10449 10439 10429 10420 10413 10409 10410 10404 10400 10395 10395 10396 10397 10396 10397 10399 10400 10401 10398 10398 10399 10396 10397 10403 10401 10407 10404 10407 10420 10426 10419 10423 10425 10430
10534 10528 10520 10512 10505 10495 10486 10475 10464 10455 10444 10435 10425 10418 10406 10399 10390 10384 10380 10377 10376 10374 10371 10368 10367 10370 10369 10373 10374 10374 10375 10377 10377 10376 10372 10377 10379 10379 10392 10382 10389 10407 10402 10401 10406 10406 10409
10515 10507 10499 10492 10481 10471 10459 10448 10437 10428 10417 10406 10395 10383 10375 10369 10362 10356 10353 10351 10347 10345 10346 10342 10344 10344 10344 10343 10347 10350 10352 10354 10353 10351 10351 10356 10354 10356 10370 10363 10378 10382 10384 10378 10389 10387 10384
10494 10486 10477 10467 10457 10444 10432 10421 10408 10397 10387 10379 10368 10359 10351 10343 10335 10331 10330 10326 10323 10320 10321 10320 10317 10317 10320 10320 10321 10325 10326 10332 10333 10334 10329 10330 10331 10335 10346 10347 10358 10362 10359 10363 10365 10364 10358
10471 10462 10452 10442 10430 10418 10406 10393 10381 10368 10357 10351 10341 10334 10328 10324 10315 10309 10304 10301 10298 10299 10296 10295 10294 10295 10296 10296 10295 10302 10306 10308 10309 10311 10309 10306 10309 10314 10321 10327 10338 10337 10340 10342 10345 10346 10333
10447 10438 10427 10416 10404 10391 10378 10366 10354 10341 10329 10324 10313 10307 10304 10302 10297 10290 10283 10277 10273 10271 10269 10270 10270 10268 10271 10274 10275 10278 10285 10285 10289 10287 10288 10288 10288 10295 10295 10304 10315 10315 10318 10320 10322 10324 10331
10423 10413 10402 10389 10378 10364 10352 10339 10327 10314 10302 10297 10288 10281 10279 10278 10275 10267 10262 10253 10249 10244 10242 10246 10244 10241 10243 10245 10252 10259 10264 10266 10268 10268 10269 10268 10266 10269 10271 10280 10293 10295 10296 10297 10299 10303 10310
10400 10390 10377 10363 10349 10335 10322 10309 10298 10287 10279 10271 10265 10256 10253 10249 10252 10243 10236 10227 10222 10218 10217 10217 10218 10212 10217 10221 10227 10235 10241 10245 10245 10250 10246 10244 10238 10242 10249 10265 10270 10271 10274 10273 10275 10279 10287